Temp
-4 -4 -4 -5 -5 -4 -5 -4 -4 -4 -4 -5 -4 -5 -5 -4 -5 -5 -5 -5 -4 -4 -4 -4 -4 -4 -4 -4 -4 -4 -4 -4 -4 -5 -5 -5 -5 -5 -5 -6 -6 -6 -6 -7 -7 -7 -7 -7 -8
-4 -4 -4 -4 -4 -5 -5 -4 -4 -4 -5 -5 -6 -5 -5 -4 -5 -5 -6 -5 -5 -4 -4 -4 -4 -4 -4 -4 -5 -4 -4 -4 -5 -5 -5 -5 -5 -5 -5 -5 -6 -6 -6 -6 -7 -7 -7 -7 -8
-5 -5 -3 -3 -4 -4 -5 -5 -5 -4 -5 -5 -5 -5 -5 -5 -5 -6 -6 -6 -5 -5 -4 -4 -5 -5 -5 -5 -5 -5 -4 -4 -5 -5 -5 -5 -5 -5 -5 -5 -5 -6 -6 -6 -6 -7 -7 -7 -7
-4 -3 -4 -7 -4 -4 -4 -5 -5 -6 -6 -5 -5 -5 -5 -5 -5 -6 -7 -7 -6 -5 -5 -5 -5 -5 -5 -5 -5 -5 -5 -4 -5 -5 -5 -5 -5 -5 -5 -5 -5 -5 -6 -6 -6 -6 -6 -7 -7
-4 -3 -5 -4 -4 -4 -4 -5 -5 -5 -6 -6 -5 -5 -5 -5 -6 -6 -6 -7 -7 -6 -6 -5 -6 -5 -5 -5 -6 -5 -5 -5 -5 -5 -5 -5 -5 -5 -5 -5 -5 -5 -6 -6 -6 -6 -6 -7 -7
-4 -5 -7 -5 -4 -5 -4 -4 -5 -6 -5 -5 -5 -5 -6 -6 -6 -6 -6 -7 -7 -7 -6 -5 -6 -6 -6 -5 -6 -6 -5 -5 -5 -5 -6 -5 -5 -5 -5 -5 -5 -5 -5 -6 -6 -6 -6 -7 -6
-5 -6 -6 -5 -5 -4 -5 -5 -5 -6 -5 -5 -5 -5 -5 -5 -6 -6 -6 -7 -7 -7 -7 -6 -6 -6 -6 -6 -6 -6 -6 -5 -5 -5 -6 -6 -5 -5 -5 -5 -5 -6 -5 -5 -6 -6 -6 -6 -6
-4 -6 -6 -5 -5 -5 -4 -4 -4 -5 -5 -5 -5 -5 -5 -6 -6 -7 -7 -7 -7 -7 -7 -7 -6 -6 -6 -6 -6 -6 -6 -5 -5 -5 -6 -6 -6 -5 -6 -5 -5 -6 -6 -5 -6 -6 -6 -6 -6
-5 -5 -6 -5 -5 -5 -5 -5 -5 -5 -6 -6 -6 -5 -6 -6 -7 -7 -7 -8 -7 -8 -8 -7 -6 -6 -6 -6 -6 -5 -6 -5 -5 -6 -6 -5 -5 -6 -6 -5 -5 -5 -5 -6 -5 -6 -6 -6 -6
-5 -5 -5 -5 -5 -5 -5 -5 -5 -5 -5 -6 -6 -6 -6 -6 -7 -7 -7 -7 -8 -8 -8 -7 -6 -7 -6 -6 -5 -5 -6 -6 -6 -6 -6 -6 -6 -5 -6 -6 -6 -6 -6 -6 -6 -5 -6 -6 -6
-6 -4 -4 -5 -5 -5 -5 -5 -5 -5 -5 -6 -6 -6 -6 -7 -6 -6 -7 -7 -8 -7 -7 -7 -6 -6 -6 -6 -6 -6 -6 -6 -6 -6 -6 -6 -6 -6 -5 -6 -6 -6 -6 -6 -6 -6 -6 -6 -6
-5 -4 -4 -4 -4 -4 -5 -4 -4 -5 -5 -5 -6 -6 -6 -6 -6 -6 -7 -7 -7 -8 -7 -7 -6 -6 -6 -6 -6 -5 -6 -5 -5 -6 -6 -6 -6 -6 -6 -6 -6 -6 -6 -6 -6 -6 -6 -6 -5
-7 -4 -5 -5 -5 -4 -4 -5 -5 -5 -5 -5 -6 -6 -6 -7 -6 -7 -7 -7 -7 -8 -7 -7 -6 -6 -6 -6 -5 -6 -5 -5 -5 -6 -6 -6 -6 -6 -6 -6 -5 -6 -6 -5 -5 -5 -6 -6 -5
-7 -5 -5 -5 -5 -5 -5 -5 -5 -5 -5 -5 -5 -6 -6 -6 -6 -6 -6 -7 -7 -7 -7 -6 -6 -6 -6 -6 -6 -5 -5 -5 -5 -5 -6 -6 -6 -6 -6 -5 -6 -6 -5 -5 -5 -5 -5 -5 -6
-6 -6 -5 -5 -5 -5 -5 -6 -5 -5 -5 -5 -5 -5 -5 -5 -6 -6 -6 -6 -6 -6 -6 -7 -7 -6 -6 -6 -6 -6 -5 -5 -5 -5 -5 -6 -6 -7 -6 -6 -5 -5 -5 -5 -5 -5 -5 -6 -5
-6 -6 -6 -6 -6 -6 -5 -5 -6 -6 -5 -5 -5 -5 -5 -5 -5 -5 -6 -6 -6 -6 -6 -6 -6 -6 -6 -6 -6 -6 -6 -5 -5 -6 -6 -6 -6 -6 -6 -6 -6 -5 -5 -5 -5 -5 -6 -6 -6
-5 -5 -6 -6 -6 -6 -5 -4 -6 -6 -6 -5 -5 -5 -5 -5 -5 -6 -5 -5 -5 -5 -6 -6 -6 -6 -6 -6 -6 -6 -6 -6 -5 -5 -6 -6 -6 -6 -7 -6 -6 -5 -5 -5 -5 -5 -5 -6 -5
-5 -6 -6 -6 -5 -7 -6 -6 -6 -6 -5 -5 -5 -5 -5 -5 -5 -5 -5 -5 -5 -5 -5 -5 -5 -5 -5 -6 -6 -6 -6 -6 -5 -5 -6 -6 -6 -6 -6 -7 -6 -5 -5 -5 -5 -5 -6 -6 -6
-5 -6 -5 -6 -5 -5 -7 -6 -6 -6 -6 -6 -6 -5 -5 -5 -5 -5 -5 -5 -5 -5 -5 -5 -5 -5 -5 -5 -5 -6 -6 -6 -5 -5 -5 -6 -6 -6 -6 -7 -6 -5 -5 -3 -6 -6 -6 -6 -6
-5 -5 -6 -5 -6 -6 -5 -6 -6 -5 -6 -6 -5 -5 -5 -5 -5 -5 -5 -5 -5 -5 -5 -5 -5 -5 -5 -5 -5 -6 -6 -6 -5 -5 -6 -5 -6 -6 -6 -6 -5 -5 -5 -5 -5 -5 -6 -7 -6
-6 -6 -6 -6 -6 -5 -5 -6 -5 -5 -6 -6 -6 -5 -5 -5 -5 -5 -5 -4 -4 -5 -5 -5 -5 -5 -6 -6 -6 -6 -6 -6 -6 -5 -6 -6 -7 -7 -6 -5 -5 -5 -5 -5 -5 -5 -6 -6 -6
-6 -6 -6 -6 -6 -6 -6 -5 -5 -6 -6 -6 -6 -5 -5 -5 -5 -4 -4 -4 -5 -5 -5 -6 -5 -6 -6 -6 -6 -6 -7 -6 -6 -5 -6 -6 -7 -6 -6 -5 -6 -5 -5 -5 -5 -5 -6 -6 -6
-6 -5 -6 -6 -6 -6 -5 -5 -6 -6 -6 -6 -6 -5 -5 -5 -5 -4 -4 -4 -4 -5 -5 -6 -6 -6 -6 -6 -6 -6 -6 -6 -7 -6 -5 -6 -7 -7 -6 -6 -6 -5 -6 -5 -6 -5 -5 -6 -6
-6 -6 -6 -5 -6 -6 -5 -5 -5 -5 -6 -5 -6 -5 -5 -5 -5 -4 -4 -4 -4 -5 -5 -5 -6 -6 -6 -6 -6 -6 -6 -6 -7 -6 -6 -6 -7 -7 -6 -6 -6 -6 -6 -5 -5 -6 -6 -6 -6
-7 -7 -6 -6 -5 -5 -4 -4 -6 -6 -5 -5 -5 -5 -5 -5 -5 -5 -4 -5 -4 -5 -5 -5 -6 -6 -6 -7 -7 -7 -6 -6 -7 -8 -7 -7 -7 -7 -6 -6 -6 -7 -6 -6 -6 -6 -6 -6 -6
-7 -7 -6 -5 -4 -3 -5 -4 -5 -5 -5 -5 -6 -6 -6 -5 -5 -5 -5 -5 -5 -5 -5 -5 -5 -6 -6 -6 -6 -6 -6 -6 -6 -6 -7 -7 -6 -7 -7 -7 -7 -6 -7 -7 -7 -7 -7 -7 -6
-6 -7 -6 -6 -5 -5 -6 -6 -6 -6 -5 -4 -6 -6 -6 -6 -5 -5 -5 -5 -5 -5 -5 -5 -6 -6 -6 -7 -7 -7 -6 -6 -6 -6 -6 -5 -7 -6 -5 -7 -7 -7 -7 -7 -7 -7 -7 -7 -7
-6 -6 -6 -6 -6 -5 -5 -5 -5 -5 -5 -6 -6 -6 -5 -5 -5 -6 -5 -5 -5 -5 -5 -6 -6 -7 -7 -7 -7 -7 -7 -7 -7 -7 -6 -6 -7 -7 -7 -8 -7 -7 -7 -7 -7 -7 -7 -7 -7
-7 -6 -6 -6 -5 -5 -5 -5 -6 -7 -6 -6 -6 -6 -6 -5 -5 -6 -6 -5 -5 -5 -6 -6 -7 -7 -7 -7 -7 -8 -8 -7 -7 -7 -7 -7 -7 -7 -7 -6 -7 -7 -7 -7 -7 -7 -7 -7 -7
-7 -7 -6 -6 -6 -5 -5 -5 -5 -6 -6 -6 -6 -6 -7 -6 -5 -5 -6 -5 -5 -5 -6 -6 -6 -6 -7 -7 -6 -7 -8 -8 -7 -6 -6 -6 -7 -6 -6 -7 -7 -7 -7 -7 -7 -7 -7 -7 -7
Height
5889 5889 5889 5892 5892 5891 5891 5891 5891 5892 5893 5894 5895 5897 5897 5898 5896 5900 5900 5902 5903 5905 5905 5904 5906 5907 5906 5905 5904 5903 5903 5903 5904 5903 5902 5901 5902 5900 5899 5899 5899 5899 5899 5899 5899 5899 5901 5902 5904
5892 5891 5893 5893 5891 5891 5892 5891 5892 5892 5893 5895 5896 5898 5899 5898 5894 5898 5900 5902 5905 5906 5906 5906 5906 5907 5908 5907 5906 5905 5905 5905 5906 5906 5904 5903 5903 5903 5902 5902 5902 5902 5902 5902 5902 5903 5904 5905 5906
5895 5895 5894 5891 5893 5892 5893 5892 5893 5894 5894 5895 5897 5898 5898 5899 5899 5899 5901 5903 5905 5906 5907 5907 5908 5909 5910 5909 5908 5907 5908 5908 5908 5908 5908 5906 5905 5905 5905 5904 5905 5905 5905 5906 5905 5906 5907 5908 5910
5895 5894 5893 5899 5897 5895 5895 5894 5894 5895 5897 5898 5896 5898 5899 5899 5898 5898 5901 5904 5905 5907 5908 5909 5910 5911 5911 5911 5910 5908 5910 5910 5911 5911 5911 5909 5908 5908 5908 5907 5907 5908 5908 5909 5908 5910 5911 5912 5913
5892 5891 5896 5899 5900 5899 5898 5897 5897 5898 5898 5898 5898 5898 5899 5900 5900 5900 5900 5901 5907 5909 5909 5911 5912 5912 5912 5912 5913 5910 5912 5913 5913 5913 5914 5913 5911 5911 5910 5911 5911 5911 5912 5911 5911 5913 5914 5915 5916
5864 5898 5901 5903 5903 5902 5900 5899 5899 5899 5900 5900 5900 5900 5900 5900 5900 5901 5902 5903 5903 5910 5910 5911 5913 5913 5914 5913 5914 5912 5914 5915 5917 5917 5916 5916 5915 5914 5913 5913 5914 5913 5914 5915 5915 5915 5917 5919 5920
5901 5902 5905 5906 5905 5905 5904 5902 5902 5902 5901 5901 5900 5900 5901 5901 5901 5901 5903 5904 5906 5909 5912 5913 5914 5915 5916 5915 5917 5915 5915 5917 5919 5919 5917 5916 5917 5917 5916 5917 5916 5916 5917 5918 5918 5919 5920 5921 5923
5900 5905 5911 5909 5908 5908 5907 5906 5906 5904 5902 5900 5901 5901 5901 5900 5901 5902 5904 5906 5908 5910 5912 5915 5916 5916 5918 5918 5918 5919 5918 5919 5920 5920 5917 5917 5917 5918 5920 5920 5920 5920 5920 5920 5921 5921 5922 5923 5925
5909 5913 5914 5912 5911 5911 5910 5908 5908 5907 5905 5903 5904 5903 5903 5902 5903 5905 5907 5909 5911 5912 5914 5916 5918 5919 5920 5920 5920 5921 5921 5922 5922 5920 5919 5909 5921 5919 5922 5922 5923 5923 5923 5923 5924 5925 5925 5925 5927
5913 5915 5915 5913 5913 5913 5912 5912 5912 5912 5910 5909 5907 5905 5904 5904 5906 5907 5909 5910 5913 5915 5917 5920 5922 5922 5921 5922 5922 5922 5923 5924 5924 5922 5921 5921 5921 5921 5924 5925 5926 5926 5926 5926 5926 5927 5928 5928 5930
5918 5917 5917 5915 5914 5914 5914 5914 5914 5913 5912 5912 5911 5910 5909 5909 5908 5908 5910 5911 5914 5916 5918 5921 5923 5924 5923 5924 5923 5924 5924 5926 5927 5925 5923 5923 5924 5924 5926 5927 5927 5928 5928 5928 5928 5929 5929 5930 5931
5918 5917 5916 5916 5915 5916 5916 5916 5915 5915 5915 5915 5914 5913 5912 5911 5911 5909 5907 5910 5911 5917 5920 5923 5923 5924 5925 5926 5926 5926 5927 5927 5927 5926 5926 5927 5927 5925 5926 5927 5928 5929 5929 5929 5930 5931 5931 5932 5933
5923 5918 5917 5917 5917 5918 5918 5918 5918 5917 5917 5916 5915 5916 5915 5914 5914 5914 5912 5913 5916 5920 5922 5923 5924 5925 5927 5928 5927 5928 5927 5928 5928 5927 5927 5927 5928 5929 5928 5928 5928 5929 5930 5931 5932 5932 5932 5933 5934
5925 5921 5921 5920 5920 5921 5921 5921 5921 5920 5919 5918 5917 5916 5916 5916 5916 5917 5918 5919 5920 5922 5924 5925 5926 5927 5928 5929 5929 5929 5929 5929 5929 5929 5928 5928 5929 5929 5929 5929 5930 5930 5931 5931 5932 5933 5933 5934 5935
5928 5925 5923 5924 5925 5925 5924 5923 5922 5922 5921 5920 5919 5919 5919 5918 5918 5917 5919 5920 5922 5923 5924 5926 5927 5928 5929 5929 5930 5930 5930 5930 5930 5930 5930 5929 5929 5929 5930 5931 5931 5932 5932 5931 5932 5932 5933 5933 5934
5927 5923 5926 5927 5927 5926 5926 5925 5923 5924 5923 5921 5920 5920 5920 5919 5919 5919 5920 5922 5923 5924 5925 5926 5926 5927 5928 5929 5929 5930 5931 5931 5932 5931 5929 5929 5930 5930 5929 5931 5932 5932 5931 5932 5932 5932 5933 5933 5934
5921 5920 5921 5926 5928 5928 5929 5927 5925 5927 5925 5923 5922 5921 5920 5919 5920 5921 5921 5922 5923 5924 5925 5926 5927 5926 5926 5926 5928 5928 5929 5930 5930 5929 5930 5929 5930 5929 5929 5931 5931 5931 5930 5931 5931 5931 5931 5933 5933
5926 5923 5913 5915 5930 5927 5929 5928 5925 5928 5926 5925 5923 5922 5922 5921 5921 5921 5922 5922 5923 5924 5925 5925 5925 5925 5925 5925 5925 5925 5926 5926 5926 5926 5926 5928 5929 5929 5928 5929 5930 5929 5928 5929 5928 5929 5930 5932 5933
5923 5923 5913 5907 5930 5925 5928 5926 5928 5929 5928 5926 5925 5924 5923 5922 5922 5923 5923 5923 5923 5923 5924 5924 5924 5924 5923 5923 5923 5923 5922 5922 5924 5927 5926 5925 5925 5926 5928 5928 5926 5927 5928 5930 5929 5927 5927 5930 5932
5928 5921 5923 5911 5924 5930 5930 5929 5918 5929 5930 5928 5927 5925 5924 5924 5924 5924 5924 5923 5923 5923 5923 5923 5923 5922 5921 5921 5921 5920 5920 5921 5922 5925 5925 5927 5922 5925 5927 5927 5925 5927 5930 5932 5929 5927 5927 5927 5930
5930 5933 5927 5921 5925 5930 5927 5925 5904 5928 5932 5931 5929 5927 5926 5925 5925 5926 5925 5925 5924 5923 5922 5922 5922 5921 5921 5920 5920 5918 5918 5919 5903 5920 5921 5927 5925 5926 5927 5926 5928 5930 5929 5930 5930 5927 5928 5928 5929
5929 5932 5930 5926 5928 5930 5931 5930 5930 5929 5930 5932 5931 5928 5927 5926 5926 5926 5926 5925 5924 5923 5922 5922 5922 5921 5921 5921 5920 5918 5917 5920 5924 5921 5924 5924 5923 5928 5928 5927 5928 5928 5927 5927 5928 5929 5929 5930 5929
5926 5924 5927 5928 5929 5927 5927 5922 5924 5923 5930 5926 5933 5930 5927 5927 5926 5926 5926 5925 5924 5923 5922 5922 5921 5921 5920 5921 5920 5918 5918 5919 5917 5921 5912 5925 5926 5929 5928 5927 5928 5926 5928 5931 5929 5928 5931 5932 5931
5921 5924 5924 5924 5925 5926 5926 5919 5919 5918 5922 5920 5931 5931 5928 5927 5926 5927 5926 5925 5923 5923 5922 5921 5921 5921 5920 5920 5920 5919 5919 5921 5918 5920 5920 5920 5925 5926 5926 5925 5925 5925 5929 5932 5928 5928 5933 5932 5932
5916 5919 5921 5924 5924 5926 5929 5924 5909 5912 5919 5922 5925 5930 5928 5928 5927 5926 5926 5925 5924 5922 5922 5921 5921 5920 5919 5919 5919 5918 5920 5921 5919 5913 5917 5921 5921 5926 5923 5924 5924 5924 5926 5927 5929 5930 5931 5931 5933
5911 5915 5918 5921 5924 5929 5919 5917 5913 5921 5920 5917 5921 5922 5927 5927 5926 5926 5925 5925 5924 5923 5922 5921 5920 5919 5919 5919 5918 5917 5917 5919 5921 5919 5915 5917 5918 5913 5903 5914 5923 5922 5925 5928 5928 5930 5931 5932 5931
5906 5908 5914 5917 5917 5920 5919 5912 5912 5915 5919 5919 5919 5919 5922 5925 5924 5925 5924 5924 5923 5922 5921 5921 5920 5919 5918 5919 5919 5917 5917 5917 5917 5915 5912 5908 5909 5902 5900 5914 5920 5920 5925 5928 5929 5931 5932 5932 5931
5897 5907 5912 5913 5913 5915 5916 5914 5914 5913 5915 5921 5920 5919 5918 5922 5922 5923 5923 5923 5922 5921 5921 5920 5919 5918 5918 5917 5917 5915 5914 5915 5915 5914 5905 5912 5915 5898 5906 5917 5922 5921 5924 5927 5928 5930 5931 5931 5931
5894 5896 5902 5908 5912 5914 5916 5913 5915 5910 5914 5921 5921 5918 5916 5917 5920 5921 5922 5922 5922 5921 5919 5918 5918 5917 5916 5915 5913 5913 5912 5911 5912 5913 5907 5915 5915 5919 5922 5923 5920 5922 5926 5927 5928 5930 5931 5931 5931
5889 5893 5897 5901 5905 5908 5914 5909 5913 5913 5918 5919 5919 5916 5917 5913 5917 5918 5920 5920 5920 5919 5919 5918 5916 5915 5913 5910 5908 5908 5910 5909 5907 5909 5909 5908 5911 5916 5918 5918 5917 5921 5926 5926 5926 5929 5931 5930 5930
Wind_Speed
19 18 15 8 8 6 6 4 3 1 2 4 8 11 11 9 16 12 12 13 12 13 13 14 12 9 11 13 17 20 19 19 18 16 18 19 19 21 21 20 20 21 20 19 20 21 21 19 18
22 19 10 9 13 8 5 1 3 2 6 10 8 13 9 11 9 14 15 15 14 14 14 15 12 9 10 11 15 18 17 18 17 16 16 18 18 18 20 19 18 16 18 16 17 21 22 21 18
21 11 11 20 19 11 4 3 3 3 4 9 12 10 10 13 11 13 17 18 18 17 16 14 12 12 12 12 14 17 16 18 17 15 16 17 17 16 17 18 16 15 17 15 17 17 20 22 20
16 15 25 17 18 17 12 5 4 5 7 9 13 9 8 8 13 17 19 18 17 16 15 15 17 16 14 13 14 17 16 17 16 16 16 16 17 15 16 16 17 15 13 15 17 17 18 20 21
12 18 23 20 18 17 14 8 3 4 3 3 8 2 6 5 5 11 16 24 16 15 17 18 17 14 13 14 14 17 15 15 15 16 16 17 17 17 16 13 15 16 14 14 17 17 17 18 20
23 20 13 12 17 18 17 11 6 6 2 5 5 7 3 5 6 5 11 22 22 16 18 18 14 13 12 14 11 16 14 13 13 14 15 16 15 17 16 14 14 15 15 14 15 17 16 16 16
22 17 6 10 15 18 20 19 15 8 3 1 6 6 7 8 9 5 13 20 23 20 19 16 13 11 12 13 7 12 14 11 11 10 14 15 14 13 13 13 12 13 15 15 14 15 16 14 14
13 15 12 9 11 14 15 18 16 18 13 8 5 4 4 4 3 9 21 23 24 24 20 13 10 10 8 10 10 9 10 7 6 6 7 7 12 13 12 12 11 13 12 13 12 12 14 14 12
14 15 9 3 7 10 12 15 17 18 16 12 11 10 8 5 2 12 17 18 18 21 18 13 8 7 5 7 8 6 6 5 5 3 4 6 8 11 10 12 11 11 12 11 12 10 9 11 12
9 11 2 5 5 6 10 12 13 15 18 17 16 15 12 11 7 4 18 19 20 20 18 12 9 5 3 4 4 6 6 8 5 3 2 4 6 7 7 8 10 9 9 10 10 11 10 8 7
6 6 2 4 3 4 8 9 10 11 14 15 17 19 23 19 6 2 1 20 24 21 17 12 6 4 2 2 4 4 5 6 3 5 6 3 2 3 3 4 6 7 9 8 9 12 8 7 6
9 4 3 2 3 3 6 8 9 9 9 10 11 11 14 15 17 22 11 12 26 20 18 9 7 7 5 3 4 5 4 3 2 5 3 3 1 3 0 2 0 3 5 6 6 3 8 6 5
4 7 6 4 4 5 5 7 7 7 6 7 8 6 7 9 11 13 18 13 17 17 10 9 9 9 7 6 6 4 2 0 2 3 3 5 2 3 3 2 3 2 2 2 3 4 4 4 4
10 5 7 7 5 7 7 10 7 7 4 4 5 4 4 5 6 8 10 10 15 11 7 5 9 7 4 6 7 6 3 3 2 3 2 3 5 6 1 1 4 1 1 1 1 0 1 1 3
11 3 7 8 7 8 8 10 7 9 6 6 6 3 3 4 5 6 7 7 5 6 5 5 10 5 2 2 5 6 7 6 4 4 3 3 3 9 2 1 2 3 3 1 1 2 2 5 5
6 7 7 9 7 6 9 11 13 9 6 5 6 5 5 5 4 4 5 4 2 1 4 5 7 7 4 4 5 7 7 8 8 4 3 2 6 8 8 5 4 3 5 3 1 4 5 6 6
15 11 2 8 6 6 6 5 12 8 8 7 5 3 3 4 4 4 4 4 3 3 3 4 7 8 7 7 7 8 9 10 9 5 3 6 4 5 5 9 3 4 1 2 4 4 5 6 8
9 14 22 19 5 4 7 10 11 7 4 3 3 3 3 4 4 5 5 3 3 4 4 4 4 5 8 10 9 9 9 10 9 4 2 3 6 7 6 5 3 3 1 3 5 6 7 6 5
17 7 14 17 19 5 7 5 8 9 8 5 4 5 6 4 4 6 6 5 3 2 3 3 4 4 5 5 5 6 7 9 10 8 2 2 5 0 7 3 4 6 3 2 10 8 7 8 6
5 12 3 7 14 7 14 3 15 8 7 8 7 6 7 7 6 6 6 6 5 3 3 4 2 2 2 3 4 6 7 8 6 8 3 6 6 11 4 5 5 3 5 3 5 7 9 7 4
10 10 20 26 2 4 16 2 4 3 4 7 5 5 5 6 7 6 6 5 3 2 2 4 4 4 5 5 4 6 8 8 7 8 2 4 9 10 5 6 1 1 6 6 3 5 8 7 6
10 12 15 12 11 13 12 14 12 12 6 3 4 4 2 3 5 4 3 4 3 2 3 4 4 4 6 6 7 5 6 4 7 11 10 10 9 4 2 3 2 2 7 5 4 6 6 4 2
14 19 26 12 14 18 12 23 19 14 12 8 5 6 5 4 3 3 3 6 9 3 3 5 6 3 5 6 6 5 5 4 7 10 17 9 7 5 4 3 3 4 3 4 6 5 5 4 4
17 15 16 19 15 16 13 29 28 21 13 7 3 6 10 10 5 5 6 10 12 4 2 4 4 4 4 6 6 3 2 1 8 6 4 8 8 9 6 5 3 3 2 5 5 6 3 4 4
20 21 16 13 15 15 9 19 16 22 28 5 1 4 7 10 5 4 10 12 12 8 4 2 1 2 2 3 2 2 1 2 6 5 5 10 12 12 12 9 9 7 2 3 3 3 4 4 4
23 24 20 13 12 13 12 30 23 11 17 3 3 14 8 8 10 9 11 10 11 11 9 9 5 4 3 5 5 6 6 5 4 5 12 15 9 21 15 17 13 9 3 2 2 4 3 4 6
27 27 23 23 24 24 20 24 26 3 8 4 2 13 19 10 11 9 8 7 11 9 9 6 5 7 7 6 6 9 9 8 7 9 11 14 13 17 26 12 8 6 6 3 1 3 4 6 7
34 25 22 24 28 27 25 20 13 11 1 8 14 16 21 5 12 8 6 10 12 12 10 10 9 6 7 10 10 10 11 8 9 11 18 13 12 18 20 11 8 8 8 5 1 2 3 6 8
26 35 31 25 25 25 25 20 3 7 5 11 10 17 18 11 10 10 10 14 11 11 9 8 10 11 12 15 13 12 8 9 9 10 17 12 13 6 3 8 8 6 5 4 3 3 7 9 10
24 23 31 29 25 24 23 14 26 15 10 11 9 14 15 23 13 14 14 16 10 10 7 8 11 13 13 12 17 14 11 8 9 10 11 13 13 9 8 7 6 6 8 8 5 6 8 10 10
Wind_Direction
77 73 69 65 48 85 68 52 52 11 132 170 164 162 188 187 170 163 159 148 139 138 125 112 114 109 110 89 83 79 76 74 69 68 87 86 81 76 77 82 84 81 78 80 90 97 92 93 92
69 66 84 72 45 54 359 35 104 111 156 169 176 179 178 182 175 167 162 149 142 149 135 120 122 123 124 94 90 85 75 73 73 66 79 94 87 82 78 80 81 85 80 73 84 96 102 99 96
63 80 89 53 34 40 67 326 74 96 131 142 190 181 190 193 209 165 164 161 161 157 142 132 127 124 121 108 92 88 82 73 73 72 71 97 91 87 81 86 87 88 87 82 84 92 100 101 102
66 59 58 53 39 48 61 64 99 123 138 212 187 190 210 250 230 184 165 160 158 151 138 129 125 120 119 108 97 89 80 78 77 75 70 89 93 86 83 85 89 89 92 89 91 95 96 102 107
95 80 48 43 47 43 49 61 90 120 149 220 234 285 234 253 269 273 199 162 152 142 131 130 125 118 112 113 100 89 83 85 83 82 77 81 90 90 96 90 90 92 93 92 94 96 98 104 109
60 71 57 43 60 50 49 55 74 149 225 211 254 266 267 257 264 287 243 162 142 146 134 133 132 118 106 117 102 92 86 88 86 86 81 76 82 83 92 90 91 92 95 95 97 97 100 98 105
60 48 23 51 57 58 51 58 60 56 16 320 244 258 278 271 259 239 192 170 159 151 145 145 135 127 110 105 97 97 95 84 80 79 88 78 80 84 90 86 86 96 95 92 101 103 104 109 109
323 81 335 57 71 59 56 62 56 51 39 44 9 217 265 247 198 205 178 174 156 153 148 141 136 122 122 122 111 106 103 91 89 95 101 79 92 84 81 86 93 83 102 97 88 105 110 115 122
72 106 285 76 75 73 54 58 56 52 53 67 72 62 46 55 149 187 184 167 164 152 143 129 123 125 128 114 98 79 81 108 120 128 124 49 80 83 77 81 95 86 84 100 100 92 112 119 127
53 122 336 59 61 68 74 72 69 63 66 69 71 63 47 50 84 213 193 165 152 141 132 135 134 148 133 121 118 92 62 68 91 101 146 41 66 78 77 79 85 84 85 80 100 100 90 103 113
203 236 227 102 85 64 82 82 78 74 76 74 75 70 66 65 36 13 251 184 158 151 148 140 155 128 103 119 94 72 85 22 67 64 54 69 96 82 82 72 83 84 87 89 97 98 90 96 106
355 112 92 87 96 81 85 88 82 79 76 84 79 68 73 62 51 46 36 204 159 165 159 109 118 94 63 52 103 120 127 64 53 31 64 48 337 50 67 153 176 86 88 85 99 83 75 93 108
318 64 91 86 86 88 88 84 84 76 63 68 78 61 57 53 48 45 50 185 178 149 124 102 117 100 76 81 88 79 86 286 356 29 41 4 36 57 55 309 197 164 114 106 74 69 80 62 70
306 41 70 96 90 81 76 83 76 77 64 61 55 49 36 35 42 47 63 97 95 145 130 145 109 94 49 59 49 37 36 43 335 310 337 350 19 11 106 71 149 113 127 103 81 165 308 4 350
204 295 81 75 87 86 91 87 93 80 74 72 65 52 28 23 40 42 51 69 117 143 148 154 131 159 290 48 354 349 358 1 348 341 346 311 332 327 265 154 128 136 137 78 327 270 293 295 299
171 231 89 63 73 94 85 80 76 76 78 79 80 72 71 61 34 33 38 42 49 185 200 192 197 211 226 269 296 311 329 329 326 327 359 350 297 325 337 209 164 175 123 94 234 276 283 295 294
225 291 210 71 37 66 82 72 76 50 46 54 68 80 89 82 60 55 45 30 4 347 282 230 218 226 214 237 271 289 307 310 323 320 331 312 303 323 333 166 152 125 83 306 304 274 253 239 265
245 237 192 144 328 224 41 75 73 31 26 26 50 59 48 45 40 41 41 35 19 343 330 313 286 262 255 251 252 269 287 294 297 280 314 318 316 312 281 178 195 214 244 287 271 256 249 227 253
320 339 13 43 309 60 278 330 48 35 37 19 352 53 52 52 56 58 53 42 22 0 328 315 296 289 268 260 262 272 280 277 280 284 278 13 313 274 157 189 230 246 213 118 259 238 204 168 211
256 353 318 221 309 306 256 258 224 15 41 64 75 72 69 61 54 59 53 52 45 24 338 323 304 329 340 284 281 282 282 280 252 279 222 28 56 150 155 215 219 265 345 290 222 195 193 197 204
250 217 253 264 219 296 276 352 253 267 63 76 81 87 88 90 82 62 67 61 67 15 320 300 307 336 340 342 312 286 267 258 280 250 73 23 75 157 150 215 214 35 29 60 17 144 155 173 176
212 224 272 294 250 268 302 294 259 249 188 45 58 68 59 93 97 76 44 23 20 343 348 339 320 341 355 0 3 309 275 228 193 200 176 139 121 114 199 209 150 115 106 141 114 105 123 140 109
201 248 216 254 266 266 290 283 276 250 185 119 11 53 46 32 100 86 14 342 348 320 21 18 353 344 5 13 30 350 282 224 241 200 194 173 148 164 189 237 193 151 109 89 96 80 59 51 59
225 246 284 263 254 253 272 285 285 285 271 159 243 13 31 25 85 49 12 1 2 359 55 53 23 355 28 19 17 23 352 266 247 185 219 196 198 196 193 215 191 155 132 126 84 73 79 61 48
223 229 241 257 248 265 293 251 262 291 307 257 296 335 1 12 352 8 354 346 356 346 346 32 79 26 18 22 346 280 183 137 287 298 206 223 221 217 215 204 199 220 269 82 109 97 49 26 5
225 232 226 231 238 257 236 250 248 324 334 265 263 302 318 335 348 336 338 336 349 351 333 329 345 1 344 315 290 266 251 201 187 232 234 223 222 218 180 179 206 203 193 167 106 42 26 348 341
214 237 227 232 239 272 284 293 296 101 338 322 291 294 307 294 339 318 333 346 351 343 324 306 322 329 318 318 313 298 285 266 238 248 244 252 257 258 173 165 201 178 175 219 58 6 326 326 322
230 218 230 240 243 250 251 262 269 305 43 83 199 274 295 286 325 324 318 332 339 331 318 309 301 304 303 288 289 278 271 270 268 253 260 259 271 10 19 167 197 188 193 229 228 297 319 321 321
233 224 208 224 239 246 261 276 278 264 130 205 246 285 268 286 315 312 312 311 326 321 316 315 310 308 311 293 283 250 251 266 266 261 274 262 273 270 266 178 208 218 221 246 322 313 295 311 312
219 237 224 225 228 229 240 269 265 227 250 265 234 255 249 274 288 303 297 305 326 318 316 308 313 321 313 302 277 232 230 244 284 274 287 279 267 253 251 225 218 246 251 260 289 286 299 314 333